This is the latest recevied weather packets stored in our database for station/object IU3OVK-13. If no packets are shown the sender has not sent any weather packets the latest 10 day(s).
| Time | Temp. | Humidity | Pressure | Rain* | Wind** | Luminosity | Snow |
|---|---|---|---|---|---|---|---|
| 1788632950 | 26.67° C | 99% | 1011.5 hPa | - | - | - | - |
| 1788632330 | 26.67° C | 99% | 1011.6 hPa | - | - | - | - |
| 1788631709 | 27.22° C | 99% | 1010.8 hPa | - | - | - | - |
| 1788631141 | 27.78° C | 99% | 1010.9 hPa | - | - | - | - |
| 1788631089 | 27.78° C | 99% | 1010.9 hPa | - | - | - | - |
| 1788630469 | 27.78° C | 99% | 1010.5 hPa | - | - | - | - |
| 1788629849 | 27.78° C | 99% | 1010.4 hPa | - | - | - | - |
| 1788629229 | 28.33° C | 99% | 1010.1 hPa | - | - | - | - |
| 1788628608 | 28.89° C | 99% | 1009.8 hPa | - | - | - | - |
| 1788627988 | 29.44° C | 99% | 1009.7 hPa | - | - | - | - |
| 1788627368 | 29.44° C | 99% | 1009.7 hPa | - | - | - | - |
| 1788625507 | 30.56° C | 99% | 1008.9 hPa | - | - | - | - |
| 1788624887 | 30.56° C | 99% | 1009 hPa | - | - | - | - |
| 1788624267 | 30.56° C | 99% | 1009.1 hPa | - | - | - | - |
| 1788623647 | 30.56° C | 99% | 1008.9 hPa | - | - | - | - |
| 1788623026 | 30.56° C | 99% | 1008.5 hPa | - | - | - | - |
| 1788622438 | 30.56° C | 99% | 1008.6 hPa | - | - | - | - |
| 1788621166 | 30.56° C | 99% | 1008.5 hPa | - | - | - | - |
| 1788620545 | 31.67° C | 99% | 1007.7 hPa | - | - | - | - |
| 1788619925 | 31.11° C | 99% | 1008.2 hPa | - | - | - | - |
| 1788619305 | 31.67° C | 99% | 1007.8 hPa | - | - | - | - |
| 1788618685 | 31.67° C | 99% | 1007.9 hPa | - | - | - | - |
| 1788618065 | 31.67° C | 99% | 1008.2 hPa | - | - | - | - |
| 1788617512 | 31.11° C | 99% | 1008.8 hPa | - | - | - | - |
| 1788617444 | 31.11° C | 99% | 1008.8 hPa | - | - | - | - |
* Rain since midnight (hover to see other rain measurements)
** Current wind speed in m/s (hover to see current wind gust speed)